Location: Dumpton Point
(51.3500°N, 1.4433°E)
Time: 23:26:56
(UTC+00:00)

Cosmos 2221 - Pass Details

Date: 09 April 2020
Orbit: 592 x 617 km, 82.5° (Epoch: 24 May)

Event Time Altitude Azimuth Distance (km) Brightness Sun altitude
Exits shadow 21:46:38 26° 53° (NE) 1,221 4.0 -24.5°
Drops below altitude 10° 21:49:04 10° 27° (NNE) 1,982 5.5 -24.7°
Sets 21:51:27 0° 18° (NNE) 2,888 6.5 -24.9°
